Flag for Greece Weather past 2 weeks in Preveza, Greece

Now
75 °F

Sunny.


Feels Like: 76 °F
Forecast: 69 / 86 °F
Wind: No wind

Location: Aktion Airport

Current Time: Aug 22, 2014 at 9:37:21 AM

Latest Report: Aug 22, 2014 at 8:50 AM


Visibility: 10 mi

Pressure: 29.98 "Hg

Humidity: 78%

Dew point: 68 °F

Location of PrevezaLocation

Historic Weather in Preveza — Graph

°F

Preveza temperature yesterday

Maximum temperature yesterday: 86 °F (at 3:20 PM)
Minimum temperature yesterday: 68 °F (at 5:50 AM)
Average temperature yesterday: 77 °F

Past Weeks' High & Low Weather Summary

 TemperatureHumidityPressure
High91 °F (Aug 13, 12:20 PM)100% (Aug 9, 1:20 PM)30.07 "Hg (Aug 9, 1:20 PM)
Low43 °F (Aug 17, 4:50 AM)35% (Aug 20, 1:20 PM)29.74 "Hg (Aug 7, 8:20 AM)
Average79 °F69%29.93 "Hg
* Reported Aug 7 8:20 AM — Aug 22 8:20 AM, Preveza, Weather by CustomWeather, © 2014

Note: Actual official high and low records may vary slightly from our data, if they occured in-between our weather recording intervals... More about our weather records

Advertising

Preveza weather history for previous 24 hours

 ConditionsComfort  
Time TempWeatherWind HumidityBarometerVisibility
8:20 AM
Aug 22
73 °FSunny.No wind83%29.98 "Hg10 mi
7:50 AM72 °FClear.No wind88%29.98 "Hg10 mi
7:20 AM72 °FClear.No wind88%29.98 "Hg10 mi
6:50 AM72 °FClear.5 mph88%29.98 "Hg10 mi
6:20 AM72 °FPassing clouds.7 mph88%29.98 "HgN/A
5:50 AM70 °FPassing clouds.6 mph94%29.98 "Hg6 mi
4:50 AM72 °FFog.No wind94%29.98 "Hg3 mi
3:50 AM72 °FPassing clouds.No wind94%30.01 "Hg4 mi
2:50 AM72 °FPassing clouds.No wind94%30.01 "HgN/A
1:50 AM72 °FPassing clouds.No wind88%30.01 "HgN/A
12:50 AM72 °FPassing clouds.No wind88%30.01 "HgN/A
11:50 PM
Aug 21
73 °FPassing clouds.No wind89%30.01 "HgN/A
10:50 PM73 °FPassing clouds.2 mph89%30.04 "HgN/A
9:50 PM75 °FPassing clouds.5 mph83%30.01 "HgN/A
8:50 PM77 °FPassing clouds.6 mph83%30.01 "HgN/A
8:20 PM79 °FPassing clouds.9 mph79%30.01 "HgN/A
7:50 PM79 °FPassing clouds.9 mph79%30.01 "HgN/A
7:20 PM79 °FScattered clouds.12 mph79%30.01 "HgN/A
6:50 PM79 °FScattered clouds.9 mph79%30.01 "HgN/A
6:20 PM81 °FScattered clouds.13 mph74%30.01 "HgN/A
5:50 PM82 °FScattered clouds.14 mph70%30.01 "HgN/A
5:20 PM81 °FScattered clouds.10 mph74%30.01 "HgN/A
4:50 PM81 °FScattered clouds.9 mph74%30.01 "HgN/A
4:20 PM82 °FScattered clouds.17 mph70%30.04 "HgN/A
3:50 PM84 °FScattered clouds.17 mph62%30.04 "HgN/A
3:20 PM86 °FScattered clouds.9 mph52%30.01 "HgN/A
2:50 PM84 °FLight rain. Broken clouds.5 mph58%30.04 "HgN/A
2:20 PM84 °FScattered clouds.7 mph55%30.01 "HgN/A
1:50 PM84 °FScattered clouds.7 mph55%30.01 "HgN/A
1:20 PM81 °FPartly sunny.5 mph66%30.04 "HgN/A
12:50 PM81 °FPartly sunny.5 mph66%30.04 "HgN/A
12:20 PM82 °FPartly sunny.5 mph62%30.04 "HgN/A
11:50 AM82 °FScattered clouds.5 mph66%30.07 "HgN/A
11:20 AM77 °FScattered clouds.6 mph79%30.07 "HgN/A
10:50 AM79 °FScattered clouds.8 mph70%30.07 "HgN/A
10:20 AM79 °FScattered clouds.5 mph70%30.04 "HgN/A
9:50 AM77 °FScattered clouds.7 mph74%30.04 "HgN/A
9:20 AM77 °FScattered clouds.5 mph69%30.04 "HgN/A
Weather by CustomWeather, © 2014

See weather overviewHow to use our weather pages